Location: Groß Eilstorf
(52.8200°N, 9.4552°E)
Time: 11:02:51
(UTC+00:00)

TSX-5 - Pass Details

Date: 15 May 2026
Orbit: 387 x 993 km, 68.9° (Epoch: 7 June)

Event Time Altitude Azimuth Distance (km) Brightness Sun altitude
Rises 22:24:37 0° 318° (NW) 2,295 8.1 -17.2°
Reaches altitude 10° 22:26:42 10° 308° (NW) 1,455 6.7 -17.3°
Maximum altitude 22:29:33 33° 242° (WSW) 738 4.3 -17.4°
Enters shadow 22:29:54 32° 228° (SW) 757 4.2 -17.4°
